[[{"header":{"parameterUnit":"m.s-1","parameterCategory":1,"la1":30.2991,"la2":30.254,"lo1":-89.0895,"lo2":-89.0444,"dy":0.0017,"dx":0.0017,"nx":28,"ny":28,"refTime":"2025-07-08T09:00:00:Z","depth":0,"parameterNumber":2,"parameterNumberName":"U-component_of_WINDS"},"data":[0,0,0,0,0,0,0,0,0,0,0,0,0,0,0,0,0,0,0,0,0,0,0,0,0,0,0,0,0,0,0,0,0,0,0,0,0,0,0,0,0,0,0,0,0,0,0,0,0,0,0,0,0,0,0,0,0,0,3.9494,3.9495,0,3.9554,3.9555,3.9556,3.9466,3.9463,3.946,3.9457,3.9522,3.9526,3.9531,0,0,0,0,0,0,0,0,0,0,0,0,0,3.9302,3.9306,3.9494,3.9495,3.9495,3.9554,3.9555,3.9556,3.9467,3.9463,3.9459,3.9455,3.952,3.9526,3.9531,0,0,0,0,0,0,0,0,0,0,0,0,0,3.9376,3.9307,3.9494,3.9458,3.9455,3.9554,3.9555,3.9556,3.9467,3.9463,3.9458,3.9454,3.9518,3.9525,3.9532,3.967,0,0,3.9553,3.9556,0,0,0,0,0,0,0,0,3.9372,3.9383,3.9462,3.9461,3.9458,3.9498,3.9511,3.9594,3.9469,3.9463,3.9457,3.9451,3.9518,3.9524,3.9546,3.9673,3.9675,3.9554,3.9558,3.9561,3.9563,0,0,0,0,0,0,0,3.9367,3.938,3.9518,3.9464,3.9461,3.9439,3.9444,3.9526,3.9516,3.9463,3.9457,3.9465,3.9516,3.954,3.9547,3.9676,3.9554,3.956,3.9564,3.9567,3.9914,3.9919,0,0,0,0,0,0,3.9366,3.9377,3.9516,3.952,3.9402,3.9446,3.9452,3.949,3.9515,3.9514,3.9469,3.946,3.953,3.9539,3.9549,3.9708,3.9561,3.9568,3.9572,3.9909,3.9915,3.992,0,0,0,0,0,0,3.9362,3.9379,3.9513,3.9446,3.9462,3.9454,3.9497,3.9493,3.9517,3.9519,3.9517,3.9495,3.9527,3.9539,3.9639,3.9709,3.9571,3.9577,3.9903,3.9911,3.9918,4.003,0,0,0,0,0,0,3.9357,3.9379,3.9431,3.9448,3.9466,3.9603,3.9502,3.9498,3.9529,3.9519,3.9544,3.9543,3.9524,3.9629,3.9646,3.9716,3.9583,3.9897,3.9906,3.9915,4.002,4.004,4.0057,0,0,0,0,0,3.9351,3.9462,3.9434,3.9451,3.9531,3.9607,3.9617,3.9592,3.9535,3.9587,3.9588,3.9542,3.9699,3.964,3.9658,3.9732,3.9892,3.9904,3.9915,4.0011,4.0036,4.0057,0,0,0,0,0,0,3.9455,3.9463,3.9433,3.9553,3.9579,3.9592,3.9657,3.962,3.9664,3.9652,3.962,3.9627,3.9732,3.9743,3.9676,3.9864,3.9786,3.9802,3.9853,3.9877,3.9896,3.989,3.9589,0,0,0,0,0,3.9492,3.9552,3.9557,3.9662,3.9677,3.9665,3.9697,3.9675,3.9702,3.9713,3.9721,3.975,3.9804,3.9842,3.9893,4.0021,4.0023,4.008,4.0099,4.0115,4.0128,4.0192,4.0217,3.9957,3.9957,3.9957,0,0,3.9568,3.9581,3.9621,3.9683,3.9701,3.9764,3.9675,3.9746,3.9792,3.9724,3.9817,3.9824,3.9854,3.9967,4.0018,3.9979,4.02,4.0129,4.0142,4.0146,4.0207,4.0231,4.0253,3.9965,3.9964,3.9962,0,0,3.9739,3.9756,3.9843,3.9863,3.989,3.9881,3.9902,3.9919,3.992,4.0013,3.9962,4.0017,4.0114,4.0135,4.0159,4.0335,4.0294,4.0353,4.0452,4.0515,4.0535,4.0553,4.0612,4.0634,4.0367,4.0367,4.0367,0,3.9832,3.9923,3.9894,3.9967,3.9994,3.9934,4.0021,4.0042,4.0086,4.0106,4.0062,4.0179,4.0195,4.031,4.0352,4.0375,4.0396,4.0349,4.0535,4.0552,4.0568,4.0624,4.0647,4.0374,4.0373,4.0372,4.0372,0,4.0033,4.0098,4.0165,4.0206,4.0241,4.0322,4.0303,4.0343,4.0317,4.0313,4.0406,4.0423,4.0474,4.0501,4.0478,4.0612,4.0587,4.054,4.046,4.06,4.0652,4.0674,4.0383,4.0381,4.0379,4.0377,0,0,4.0272,4.0293,4.0318,4.0334,4.0359,4.0408,4.0485,4.0533,4.0566,4.0599,4.066,4.0742,4.0697,4.0724,4.0703,4.0759,4.0892,4.0704,4.0704,4.0735,4.1037,4.107,4.1096,4.0866,4.087,4.0873,4.1033,0,4.044,4.057,4.0544,4.0672,4.0729,4.0671,4.0738,4.076,4.0757,4.0805,4.0803,4.0859,4.0798,4.0813,4.0866,4.0865,4.0952,4.0854,4.0921,4.0924,4.0913,4.1124,4.116,4.1311,4.1054,4.1058,4.106,0,4.0653,4.0689,4.0822,4.0834,4.0857,4.0917,4.0957,4.1005,4.1028,4.1022,4.1051,4.1018,4.1093,4.1014,4.1115,4.1049,4.1075,4.1079,4.1084,4.1087,4.0999,4.113,4.1359,4.138,4.1093,4.109,4.1088,0,4.0809,4.0892,4.0981,4.0997,4.1014,4.1057,4.1066,4.1085,4.1114,4.115,4.1169,4.1214,4.1238,4.1274,4.1253,4.1198,4.1357,4.1278,4.1352,4.1353,4.1387,4.1384,4.162,4.1409,4.1409,4.1408,4.1408,0,4.0997,4.108,4.105,4.1105,4.1195,4.1164,4.1254,4.1257,4.1273,4.1326,4.1281,4.1332,4.1304,4.1352,4.1338,4.1422,4.1434,4.143,4.1424,4.1432,4.1432,4.1447,4.1435,4.1414,4.1413,4.1412,4.1411,0,4.1186,4.117,4.1262,4.127,4.1274,4.134,4.1346,4.1396,4.1389,4.1457,4.1471,4.146,4.1515,4.1498,4.1559,4.1548,4.1654,4.1637,4.1645,4.164,4.1714,4.1706,4.1965,4.1996,4.1769,4.1771,4.1773,0,4.1305,4.1367,4.138,4.1411,4.1423,4.1476,4.1504,4.1476,4.1508,4.1537,4.1584,4.1634,4.1672,4.1762,4.176,4.1804,4.1786,4.1874,4.1792,4.1797,4.1783,4.1778,4.1782,4.1889,4.1892,4.1894,4.1896,0,4.1518,4.1506,4.1549,4.1589,4.1624,4.1655,4.1681,4.171,4.1683,4.1721,4.1775,4.1805,4.1864,4.1913,4.1953,4.1962,4.1924,4.1921,4.194,4.1947,4.1948,4.1945,4.1686,4.1915,4.1913,4.1912,4.1911,4.191,4.1674,4.1724,4.174,4.1788,4.1804,4.1829,4.1875,4.1873,4.1917,4.1961,4.1943,4.2004,4.2023,4.2072,4.2087,4.2134,4.21,4.2129,4.2135,4.2142,4.215,4.1943,4.2142,4.2141,4.2141,4.214,4.214,0,4.188,4.1887,4.1932,4.1968,4.2006,4.1966,4.1992,4.2026,4.208,4.21,4.2138,4.2198,4.2245,4.2246,4.2289,4.2327,4.231,4.2339,4.2334,4.2336,4.2179,4.2157,4.2351,4.2351,4.2351,4.2351,4.2351,4.2351,4.1992,4.2074,4.2064,4.2152,4.2158,4.2217,4.2235,4.2257,4.2272,4.2341,4.2379,4.2378,4.239,4.2433,4.2474,4.2473,4.2489,4.2524,4.2516,4.2369,4.2348,4.2328,4.2306,4.2529,4.2529,4.2669,4.267,4.2671]},{"header":{"parameterUnit":"m.s-1","parameterCategory":1,"la1":30.2991,"la2":30.254,"lo1":-89.0895,"lo2":-89.0444,"dy":0.0017,"dx":0.0017,"nx":28,"ny":28,"refTime":"2025-07-08T09:00:00:Z","depth":0,"parameterNumber":3,"parameterNumberName":"V-component_of_WINDS"},"data":[0,0,0,0,0,0,0,0,0,0,0,0,0,0,0,0,0,0,0,0,0,0,0,0,0,0,0,0,0,0,0,0,0,0,0,0,0,0,0,0,0,0,0,0,0,0,0,0,0,0,0,0,0,0,0,0,0,0,4.5051,4.5052,0,4.5202,4.5204,4.5205,4.5204,4.5202,4.52,4.5199,4.5346,4.5352,4.5358,0,0,0,0,0,0,0,0,0,0,0,0,0,4.4754,4.4759,4.5051,4.5053,4.5055,4.5202,4.5204,4.5206,4.5205,4.5202,4.52,4.5198,4.5345,4.5351,4.5358,0,0,0,0,0,0,0,0,0,0,0,0,0,4.4891,4.4761,4.505,4.5072,4.5075,4.5201,4.5204,4.5206,4.5205,4.5202,4.5199,4.5197,4.5342,4.5351,4.5359,4.5472,0,0,4.5386,4.5389,0,0,0,0,0,0,0,0,4.4883,4.4902,4.5067,4.5071,4.5075,4.5182,4.5153,4.5295,4.5206,4.5156,4.5199,4.5195,4.5293,4.5306,4.5341,4.5479,4.5485,4.5386,4.5392,4.5395,4.5398,0,0,0,0,0,0,0,4.4874,4.4896,4.511,4.5069,4.5074,4.5071,4.5088,4.518,4.5239,4.516,4.516,4.5178,4.5295,4.5332,4.5344,4.5487,4.5386,4.5394,4.5399,4.5403,4.5722,4.5726,0,0,0,0,0,0,4.4861,4.4888,4.5105,4.5115,4.497,4.5079,4.5098,4.515,4.5238,4.5249,4.5181,4.5178,4.5319,4.5334,4.5349,4.5485,4.5395,4.5403,4.5408,4.5719,4.5723,4.5727,0,0,0,0,0,0,4.4855,4.488,4.5099,4.5002,4.5029,4.5088,4.5147,4.5155,4.5192,4.5254,4.5264,4.5209,4.5317,4.5337,4.5441,4.549,4.5407,4.5415,4.5715,4.572,4.5725,4.5759,0,0,0,0,0,0,4.4846,4.4878,4.4923,4.5003,4.5035,4.5191,4.515,4.516,4.5208,4.5205,4.5283,4.5293,4.5316,4.5428,4.545,4.5501,4.5422,4.5711,4.5717,4.5723,4.5754,4.5764,4.5774,0,0,0,0,0,4.4836,4.4926,4.4926,4.4952,4.5093,4.5194,4.5212,4.524,4.5212,4.5256,4.5296,4.529,4.5482,4.5439,4.5463,4.5517,4.5708,4.5716,4.5723,4.5749,4.5762,4.5773,0,0,0,0,0,0,4.4849,4.4937,4.4937,4.5057,4.5118,4.5194,4.5251,4.5253,4.5322,4.5317,4.5346,4.5363,4.5467,4.5503,4.5453,4.563,4.5591,4.5604,4.5603,4.5616,4.5625,4.5614,4.5429,0,0,0,0,0,4.4866,4.4943,4.5015,4.5113,4.5144,4.5192,4.5238,4.5254,4.5318,4.5343,4.539,4.5451,4.5524,4.5572,4.5643,4.5759,4.5774,4.5808,4.5818,4.5826,4.5836,4.5897,4.5912,4.5751,4.5751,4.5751,0,0,4.4901,4.4959,4.5006,4.5117,4.5167,4.5244,4.5214,4.5297,4.5354,4.5355,4.5457,4.5493,4.5562,4.5672,4.5723,4.5705,4.5884,4.5835,4.5841,4.5847,4.5906,4.5922,4.5935,4.5756,4.5755,4.5754,0,0,4.5005,4.5058,4.5144,4.5195,4.5271,4.5303,4.5323,4.5399,4.5424,4.5527,4.5529,4.5595,4.5722,4.5771,4.5812,4.5933,4.5929,4.5955,4.6007,4.6067,4.6079,4.6091,4.6132,4.6147,4.5965,4.5966,4.5966,0,4.5039,4.5158,4.5188,4.5272,4.532,4.5326,4.5412,4.5459,4.5554,4.5585,4.5565,4.5724,4.5771,4.5891,4.592,4.5954,4.5977,4.5946,4.6076,4.6087,4.6098,4.6138,4.6153,4.5968,4.5968,4.5968,4.5967,0,4.5194,4.5276,4.5337,4.543,4.5485,4.5569,4.561,4.5661,4.5672,4.5705,4.5808,4.5865,4.5947,4.5977,4.5988,4.6098,4.6085,4.607,4.6031,4.6116,4.6153,4.6169,4.5972,4.5971,4.597,4.5969,0,0,4.531,4.5419,4.5441,4.5482,4.5567,4.5629,4.5713,4.5796,4.5838,4.5903,4.5972,4.6079,4.6065,4.6112,4.6128,4.6181,4.6271,4.6159,4.6161,4.6176,4.6393,4.6403,4.642,4.6269,4.6272,4.6275,4.6387,0,4.5421,4.5573,4.5602,4.5732,4.5807,4.5814,4.5886,4.5944,4.5977,4.6043,4.6078,4.6153,4.613,4.6158,4.6211,4.6249,4.6314,4.6241,4.6331,4.6334,4.6312,4.644,4.6451,4.6554,4.6402,4.6404,4.6406,0,4.5571,4.5642,4.578,4.5853,4.5886,4.5951,4.6028,4.6092,4.6157,4.6176,4.6229,4.6239,4.6323,4.6282,4.6397,4.6346,4.6385,4.6409,4.6413,4.6421,4.6374,4.6449,4.6588,4.6602,4.643,4.6428,4.6426,0,4.5639,4.5768,4.5868,4.5903,4.5992,4.6037,4.6075,4.6138,4.6185,4.6252,4.6282,4.6357,4.6397,4.6453,4.6482,4.645,4.6594,4.6556,4.661,4.661,4.6639,4.6637,4.6783,4.6667,4.6667,4.6666,4.6666,0,4.5759,4.5843,4.5899,4.596,4.6053,4.6085,4.6176,4.6213,4.6269,4.6334,4.6345,4.6406,4.6442,4.6507,4.653,4.662,4.6639,4.6655,4.666,4.6653,4.6651,4.6677,4.667,4.6671,4.667,4.6669,4.6668,0,4.5851,4.5892,4.6,4.6076,4.6096,4.6161,4.6224,4.6282,4.6315,4.6398,4.6419,4.647,4.6547,4.6582,4.6678,4.6693,4.6795,4.6796,4.6774,4.6775,4.6827,4.6821,4.6995,4.7018,4.6888,4.6889,4.689,0,4.5924,4.5989,4.6071,4.6117,4.6158,4.6232,4.628,4.6314,4.6363,4.6442,4.6489,4.6568,4.6632,4.6755,4.6799,4.6871,4.6872,4.6928,4.6883,4.6874,4.687,4.6865,4.6871,4.6935,4.6937,4.6938,4.6939,0,4.6048,4.6066,4.6137,4.6215,4.6273,4.6336,4.6397,4.6433,4.6476,4.653,4.6611,4.6661,4.6759,4.6836,4.6911,4.6948,4.6949,4.6953,4.6969,4.6962,4.6946,4.6953,4.6794,4.6948,4.6947,4.6947,4.6946,4.6946,4.6132,4.6189,4.6256,4.6334,4.6384,4.6441,4.6499,4.6539,4.6608,4.6692,4.6707,4.6792,4.6853,4.6954,4.6994,4.7059,4.7045,4.7069,4.7074,4.7079,4.7081,4.6937,4.7073,4.7072,4.7072,4.7072,4.7072,0,4.6255,4.6299,4.6371,4.6456,4.6517,4.6517,4.6584,4.6634,4.671,4.6768,4.6832,4.6923,4.6998,4.7047,4.7121,4.7164,4.7166,4.7182,4.7178,4.7186,4.709,4.7068,4.7179,4.7179,4.7179,4.7179,4.7179,4.7178,4.6326,4.6423,4.6448,4.6568,4.661,4.6696,4.6734,4.6785,4.6832,4.6935,4.6997,4.703,4.7084,4.7162,4.7229,4.7242,4.7267,4.7284,4.7295,4.7204,4.7193,4.7182,4.7161,4.7289,4.729,4.7385,4.7385,4.7386]}]]